This is the latest recevied weather packets stored in our database for station/object DB0FN-10. If no packets are shown the sender has not sent any weather packets the latest 10 day(s).
| Time | Temp. | Humidity | Pressure | Rain* | Wind** | Luminosity | Snow |
|---|---|---|---|---|---|---|---|
| 1777396544 | 20.56° C | 29% | 1019.7 hPa | - | - | - | - |
| 1777395644 | 21.11° C | 28% | 1019.7 hPa | - | - | - | - |
| 1777394744 | 21.11° C | 29% | 1019.6 hPa | - | - | - | - |
| 1777393844 | 21.67° C | 28% | 1019.4 hPa | - | - | - | - |
| 1777392944 | 20.56° C | 29% | 1019.4 hPa | - | - | - | - |
| 1777392044 | 21.11° C | 30% | 1019.2 hPa | - | - | - | - |
| 1777391144 | 20° C | 29% | 1019.1 hPa | - | - | - | - |
| 1777390244 | 20.56° C | 29% | 1019 hPa | - | - | - | - |
| 1777389344 | 20.56° C | 30% | 1018.9 hPa | - | - | - | - |
| 1777388444 | 21.11° C | 31% | 1019 hPa | - | - | - | - |
| 1777387544 | 21.11° C | 32% | 1019 hPa | - | - | - | - |
| 1777386644 | 21.11° C | 31% | 1018.9 hPa | - | - | - | - |
| 1777385744 | 21.67° C | 30% | 1018.8 hPa | - | - | - | - |
| 1777384843 | 21.67° C | 30% | 1018.9 hPa | - | - | - | - |
| 1777383943 | 21.67° C | 29% | 1018.9 hPa | - | - | - | - |
| 1777383044 | 22.78° C | 29% | 1019.1 hPa | - | - | - | - |
| 1777382143 | 21.11° C | 31% | 1019.1 hPa | - | - | - | - |
| 1777381243 | 22.22° C | 29% | 1019.2 hPa | - | - | - | - |
| 1777380343 | 22.22° C | 28% | 1019.4 hPa | - | - | - | - |
| 1777379443 | 21.67° C | 30% | 1019.4 hPa | - | - | - | - |
| 1777378543 | 21.67° C | 31% | 1019.5 hPa | - | - | - | - |
| 1777377643 | 22.22° C | 29% | 1019.5 hPa | - | - | - | - |
| 1777376743 | 21.67° C | 30% | 1019.6 hPa | - | - | - | - |
| 1777375843 | 22.22° C | 30% | 1019.6 hPa | - | - | - | - |
| 1777374941 | 22.22° C | 32% | 1019.7 hPa | - | - | - | - |
* Rain since midnight (hover to see other rain measurements)
** Current wind speed in m/s (hover to see current wind gust speed)